Kalispell, MT

7:57 AM MST on December 15, 2017 (GMT -0700)
Glacier Park International

Weather History for KGPI - September, 2012

Change the Weather History Date:

Wednesday, September 19, 2012

  Actual Average Record
Temperature  
Mean Temperature 58 °F 53 °F  
Max Temperature 80 °F 68 °F 85 °F (2008)
Min Temperature 35 °F 37 °F 23 °F (1983)
Degree Days  
Heating Degree Days 7 12  
Month to date heating degree days 178 169  
Since 1 July heating degree days 296 339  
Cooling Degree Days 0 0  
Month to date cooling degree days 0 1  
Year to date cooling degree days 192 144  
Growing Degree Days 8 (Base 50)    
Moisture  
Dew Point 37 °F    
Average Humidity 56    
Maximum Humidity 92    
Minimum Humidity 20    
Precipitation  
Precipitation 0.00 in 0.05 in 0.60 in (1925)
Month to date precipitation 0.44 0.92  
Year to date precipitation 14.95 12.53  
Snow  
Snow 0.00 in - - ()
Month to date snowfall 0.0  
Year to date snowfall 25.1  
Since 1 July snowfall 0.0  
Snow Depth 0.00 in    
Sea Level Pressure  
Sea Level Pressure 30.11 in    
Wind  
Wind Speed 3 mph (SSE)    
Max Wind Speed 14 mph    
Max Gust Speed 18 mph    
Visibility 10 miles    
Events      
T = Trace of Precipitation, MM = Missing Value Source: NWS Daily Summary

Daily Weather History Graph

Daily Weather History Graph

Search for Another Location

Airport or City:

Trip Planner

Search our weather history database for the weather conditions in past years. The results will help you decide how hot, cold, wet, or windy it might be!

Date:

Astronomy

Sep. 19, 2012 Rise Set
Actual Time 7:20 AM MDT 7:39 PM MDT
Civil Twilight 6:49 AM MDT 8:11 PM MDT
Nautical Twilight 6:12 AM MDT 8:47 PM MDT
Astronomical Twilight 5:33 AM MDT 9:26 PM MDT
Moon 12:00 PM MDT (9/19) 9:26 PM MDT (9/19)
Length of Visible Light 13h 22m
Length of Day
12h 19m
Waxing Crescent, 17% of the Moon is Illuminated
Sep 19
Waxing Crescent
Sep 22
First Quarter
Sep 29
Full
Oct 8
Last Quarter
Oct 15
New

Hourly Weather History & Observations

Time (MDT) Temp. Windchill Dew Point Humidity Pressure Visibility Wind Dir Wind Speed Gust Speed Precip Events Conditions
12:55 AM 43.0 °F - 37.9 °F 82% 30.09 in 10.0 mi Calm Calm - N/A   Clear
3:55 AM 39.0 °F - 35.1 °F 86% 30.11 in 10.0 mi Calm Calm - N/A   Clear
4:55 AM 37.9 °F - 35.1 °F 89% 30.12 in 10.0 mi Calm Calm - N/A   Clear
5:55 AM 37.9 °F - 35.1 °F 89% 30.13 in 10.0 mi Calm Calm - N/A   Clear
6:55 AM 36.0 °F 33.3 °F 33.1 °F 89% 30.14 in 10.0 mi WNW 3.5 mph - N/A   Clear
7:55 AM 36.0 °F - 32.0 °F 86% 30.16 in 10.0 mi Calm Calm - N/A   Clear
8:55 AM 48.9 °F - 39.9 °F 71% 30.18 in 10.0 mi Calm Calm - N/A   Clear
9:55 AM 55.9 °F - 41.0 °F 57% 30.17 in 10.0 mi ESE 4.6 mph - N/A   Clear
10:55 AM 64.0 °F - 37.0 °F 37% 30.16 in 10.0 mi ENE 3.5 mph - N/A   Clear
11:55 AM 66.0 °F - 37.0 °F 34% 30.15 in 10.0 mi Calm Calm - N/A   Clear
12:55 PM 70.0 °F - 37.9 °F 31% 30.13 in 10.0 mi SE 3.5 mph - N/A   Clear
1:55 PM 75.9 °F - 35.1 °F 23% 30.11 in 10.0 mi South 10.4 mph - N/A   Clear
2:55 PM 77.0 °F - 36.0 °F 23% 30.10 in 10.0 mi South 11.5 mph - N/A   Clear
3:55 PM 79.0 °F - 36.0 °F 21% 30.06 in 10.0 mi SSE 11.5 mph - N/A   Clear
4:55 PM 80.1 °F - 35.1 °F 20% 30.05 in 10.0 mi South 10.4 mph - N/A   Clear
5:55 PM 79.0 °F - 37.9 °F 23% 30.04 in 10.0 mi South 5.8 mph - N/A   Clear
6:55 PM 73.9 °F - 39.9 °F 29% 30.06 in 10.0 mi South 5.8 mph - N/A   Clear
7:55 PM 62.1 °F - 39.9 °F 44% 30.08 in 4.0 mi Calm Calm - N/A   Haze
8:55 PM 55.9 °F - 39.9 °F 55% 30.08 in 8.0 mi Calm Calm - N/A   Clear
9:55 PM 51.1 °F - 39.0 °F 63% 30.09 in 8.0 mi Calm Calm - N/A   Clear
10:55 PM 46.9 °F - 39.9 °F 77% 30.09 in 10.0 mi North 3.5 mph - N/A   Clear
11:55 PM 46.9 °F - 37.9 °F 71% 30.11 in 10.0 mi Calm Calm - N/A   Clear